2023/05/16 00:00:00, 0.0,10.1
2023/05/16 00:10:00, 0.0, 9.7
2023/05/16 00:20:00, 0.0,10.0
2023/05/16 00:30:00, 0.0, 9.9
2023/05/16 00:40:00, 0.0, 9.9
2023/05/16 00:50:00, 0.0, 9.9
2023/05/16 01:00:00, 0.0,10.1
2023/05/16 01:10:00, 0.0,10.2
2023/05/16 01:20:00, 0.0,10.1
2023/05/16 01:30:00, 0.0,10.2
2023/05/16 01:40:00, 0.0,10.1
2023/05/16 01:50:00, 0.0,10.1
2023/05/16 02:00:00, 0.0,10.0
2023/05/16 02:10:00, 0.0,10.1
2023/05/16 02:20:00, 0.0,10.2
2023/05/16 02:30:00, 0.0,10.1
2023/05/16 02:40:00, 0.0,10.1
2023/05/16 02:50:00, 0.0,10.0
2023/05/16 03:00:00, 0.0, 9.9
2023/05/16 03:10:00, 0.0, 9.9
2023/05/16 03:20:00, 0.0,10.0
2023/05/16 03:30:00, 0.0,10.2
2023/05/16 03:40:00, 0.0,10.3
2023/05/16 03:50:00, 0.0,10.2
2023/05/16 04:00:00, 0.0,10.1
2023/05/16 04:10:00, 0.0,10.0
2023/05/16 04:20:00, 0.0,10.2
2023/05/16 04:30:00, 0.0,10.4
2023/05/16 04:40:00, 0.0,10.4
2023/05/16 04:50:00, 0.0,10.6
2023/05/16 05:00:00, 0.0,10.3
2023/05/16 05:10:00, 0.0,10.3
2023/05/16 05:20:00, 0.0,10.5
2023/05/16 05:30:00, 0.0,10.8
2023/05/16 05:40:00, 0.0,10.7
2023/05/16 05:50:00, 0.0,10.9
2023/05/16 06:00:00, 0.0,10.9
2023/05/16 06:10:00, 0.0,11.1
2023/05/16 06:20:00, 0.0,10.9
2023/05/16 06:30:00, 0.0,11.0
2023/05/16 06:40:00, 0.0,11.3
2023/05/16 06:50:00, 0.0,11.2
2023/05/16 07:00:00, 0.0,11.6
2023/05/16 07:10:00, 0.0,11.8
2023/05/16 07:20:00, 0.0,12.2
2023/05/16 07:30:00, 0.0,12.6
2023/05/16 07:40:00, 0.0,13.0
2023/05/16 07:50:00, 0.0,13.3
2023/05/16 08:00:00, 0.0,14.0
2023/05/16 08:10:00, 0.0,14.2
2023/05/16 08:20:00, 0.0,14.7
2023/05/16 08:30:00, 0.0,15.7
2023/05/16 08:40:00, 0.0,15.6
2023/05/16 08:50:00, 0.0,16.7
2023/05/16 09:00:00, 0.0,17.2
2023/05/16 09:10:00, 0.0,17.9
2023/05/16 09:20:00, 0.0,18.4
2023/05/16 09:30:00, 0.0,19.0
2023/05/16 09:40:00, 0.0,19.8
2023/05/16 09:50:00, 0.0,20.2
2023/05/16 10:00:00, 0.0,20.3
2023/05/16 10:10:00, 0.0,20.9
2023/05/16 10:20:00, 0.0,21.2
2023/05/16 10:30:00, 0.0,21.9
2023/05/16 10:40:00, 0.0,22.6
2023/05/16 10:50:00, 0.0,23.2
2023/05/16 11:00:00, 0.0,23.5
2023/05/16 11:10:00, 0.0,24.0
2023/05/16 11:20:00, 0.0,23.9
2023/05/16 11:30:00, 0.0,24.7
2023/05/16 11:40:00, 0.0,24.6
2023/05/16 11:50:00, 0.0,25.3
2023/05/16 12:00:00, 0.0,25.4
2023/05/16 12:10:00, 0.0,26.1
2023/05/16 12:20:00, 0.0,26.4
2023/05/16 12:30:00, 0.0,26.5
2023/05/16 12:40:00, 0.0,26.8
2023/05/16 12:50:00, 0.0,27.5
2023/05/16 13:00:00, 0.0,27.2
2023/05/16 13:10:00, 0.0,27.9
2023/05/16 13:20:00, 0.0,27.8
2023/05/16 13:30:00, 0.0,27.7
2023/05/16 13:40:00, 0.0,28.1
2023/05/16 13:50:00, 0.0,27.9
2023/05/16 14:00:00, 0.0,28.5
2023/05/16 14:10:00, 0.0,28.6
2023/05/16 14:20:00, 0.0,28.3
2023/05/16 14:30:00, 0.0,28.6
2023/05/16 14:40:00, 0.0,29.0
2023/05/16 14:50:00, 0.0,29.0
2023/05/16 15:00:00, 0.0,28.9
2023/05/16 15:10:00, 0.0,29.2
2023/05/16 15:20:00, 0.0,29.7
2023/05/16 15:30:00, 0.0,30.0
2023/05/16 15:40:00, 0.0,29.7
2023/05/16 15:50:00, 0.0,29.9
2023/05/16 16:00:00, 0.0,29.4
2023/05/16 16:10:00, 0.0,29.4
2023/05/16 16:20:00, 0.0,27.2
2023/05/16 16:30:00, 0.0,27.4
2023/05/16 16:40:00, 0.0,28.8
2023/05/16 16:50:00, 0.0,28.4
2023/05/16 17:00:00, 0.0,27.8
2023/05/16 17:10:00, 0.0,25.7
2023/05/16 17:20:00, 0.0,24.7
2023/05/16 17:30:00, 0.0,24.1
2023/05/16 17:40:00, 0.0,23.4
2023/05/16 17:50:00, 0.0,23.1
2023/05/16 18:00:00, 0.0,22.4
2023/05/16 18:10:00, 0.0,21.7
2023/05/16 18:20:00, 0.0,20.8
2023/05/16 18:30:00, 0.0,20.1
2023/05/16 18:40:00, 0.0,19.2
2023/05/16 18:50:00, 0.0,18.5
2023/05/16 19:00:00, 0.0,18.1
2023/05/16 19:10:00, 0.0,17.3
2023/05/16 19:20:00, 0.0,17.2
2023/05/16 19:30:00, 0.0,17.0
2023/05/16 19:40:00, 0.0,16.8
2023/05/16 19:50:00, 0.0,16.5
2023/05/16 20:00:00, 0.0,16.7
2023/05/16 20:10:00, 0.0,16.6
2023/05/16 20:20:00, 0.0,16.3
2023/05/16 20:30:00, 0.0,16.4
2023/05/16 20:40:00, 0.0,16.3
2023/05/16 20:50:00, 0.0,16.3
2023/05/16 21:00:00, 0.0,16.5
2023/05/16 21:10:00, 0.0,16.5
2023/05/16 21:20:00, 0.0,16.3
2023/05/16 21:30:00, 0.0,16.5
2023/05/16 21:40:00, 0.0,16.3
2023/05/16 21:50:00, 0.0,16.3
2023/05/16 22:00:00, 0.0,16.4
2023/05/16 22:10:00, 0.0,16.6
2023/05/16 22:20:00, 0.0,16.5
2023/05/16 22:30:00, 0.0,16.3
2023/05/16 22:40:00, 0.0,16.3
2023/05/16 22:50:00, 0.0,16.5
2023/05/16 23:00:00, 0.0,16.6
2023/05/16 23:10:00, 0.0,16.3
2023/05/16 23:20:00, 0.0,16.3
2023/05/16 23:30:00, 0.0,16.3
2023/05/16 23:40:00, 0.0,16.4
2023/05/16 23:50:00, 0.0,16.4
